Location: Unspecified
(0.0000°N, 0.0000°E)
Time: 00:26:07
(UTC+00:00)

ISS - Pass Details

Date: 18 January 2022
Orbit: 413 x 422 km, 51.6° (Epoch: 27 January)

Event Time Altitude Azimuth Distance (km) Brightness Sun altitude
Exits shadow 03:55:46 12° 129° (SE) 1,360 -0.4 -31.2°
Drops below altitude 10° 03:56:08 10° 131° (SE) 1,501 -0.1 -31.2°
Sets 03:58:16 0° 136° (SE) 2,368 1.0 -30.7°
